This is the latest recevied weather packets stored in our database for station/object N7YET. If no packets are shown the sender has not sent any weather packets the latest 10 day(s).
| Time | Temp. | Humidity | Pressure | Rain* | Wind** | Luminosity | Snow |
|---|---|---|---|---|---|---|---|
| 1777865543 | 13.89° C | 21% | 1231.9 hPa | 0 mm | - | - | - |
| 1777864943 | 14.44° C | 20% | 1231.9 hPa | 0 mm | - | - | - |
| 1777864342 | 15° C | 21% | 1231.9 hPa | 0 mm | - | - | - |
| 1777863741 | 15.56° C | 21% | 1231.9 hPa | 0 mm | - | - | - |
| 1777863141 | 16.11° C | 20% | 1231.9 hPa | 0 mm | - | - | - |
| 1777862540 | 16.67° C | 20% | 1231.9 hPa | 0 mm | - | - | - |
| 1777861940 | 17.78° C | 20% | 1231.9 hPa | 0 mm | - | - | - |
| 1777861339 | 18.33° C | 20% | 1231.9 hPa | 0 mm | - | - | - |
| 1777860739 | 18.89° C | 19% | 1231.9 hPa | 0 mm | - | - | - |
| 1777860138 | 19.44° C | 18% | 1231.9 hPa | 0 mm | - | - | - |
| 1777859538 | 20° C | 18% | 1231.9 hPa | 0 mm | - | - | - |
| 1777858937 | 20.56° C | 18% | 1231.9 hPa | 0 mm | - | - | - |
| 1777858336 | 21.11° C | 17% | 1231.9 hPa | 0 mm | - | - | - |
| 1777857736 | 21.67° C | 15% | 1231.9 hPa | 0 mm | - | - | - |
| 1777857136 | 21.67° C | 15% | 1231.9 hPa | 0 mm | - | - | - |
| 1777856535 | 22.22° C | 14% | 1231.9 hPa | 0 mm | - | - | - |
| 1777855934 | 22.22° C | 14% | 1231.9 hPa | 0 mm | - | - | - |
| 1777855333 | 22.22° C | 12% | 1231.9 hPa | 0 mm | - | - | - |
| 1777854733 | 22.78° C | 11% | 1231.9 hPa | 0 mm | - | - | - |
| 1777854132 | 22.78° C | 11% | 1231.9 hPa | 0 mm | - | - | - |
| 1777853532 | 23.33° C | 15% | 1231.9 hPa | 0 mm | - | - | - |
| 1777852931 | 23.33° C | 15% | 1231.9 hPa | 0 mm | - | - | - |
| 1777852331 | 24.44° C | 16% | 1231.9 hPa | 0 mm | - | - | - |
| 1777851730 | 25° C | 15% | 1231.9 hPa | 0 mm | - | - | - |
| 1777851130 | 25° C | 17% | 1231.9 hPa | 0 mm | - | - | - |
* Rain latest hour (hover to see other rain measurements)
** Current wind speed in m/s (hover to see current wind gust speed)